This is the latest recevied weather packets stored in our database for station/object WY7ATH-2. If no packets are shown the sender has not sent any weather packets the latest 10 day(s).
| Time | Temp. | Humidity | Pressure | Rain* | Wind** | Luminosity | Snow |
|---|---|---|---|---|---|---|---|
| 1788139799 | 65° F | - | - | 0.07 in | 0 mph | - | - |
| 1788138605 | 66° F | - | - | 0.07 in | 0 mph | - | - |
| 1788136810 | 67° F | - | - | 0.19 in | 0 mph | - | - |
| 1788135616 | 68° F | - | - | 0.19 in | 0 mph | - | - |
| 1788133821 | 70° F | - | - | 0.15 in | 0 mph | - | - |
| 1788133225 | 70° F | - | - | 0.15 in | 0 mph | - | - |
| 1788132626 | 70° F | - | - | 0.15 in | 1 mph, 359° | - | - |
| 1788132029 | 71° F | - | - | 0.15 in | 0 mph | - | - |
| 1788131432 | 72° F | - | - | 0.15 in | 0 mph | - | - |
| 1788130234 | 68° F | - | - | 0.13 in | 0 mph | - | - |
| 1788129040 | 68° F | - | - | 0.13 in | 0 mph | - | - |
| 1788128443 | 66° F | - | - | 0.13 in | 0 mph | - | - |
| 1788127846 | 66° F | - | - | 0.13 in | 0 mph | - | - |
| 1788127249 | 66° F | - | - | 0.13 in | 0 mph | - | - |
| 1788126649 | 68° F | - | - | 0.1 in | 0 mph | - | - |
| 1788126052 | 66° F | - | - | 0.1 in | 0 mph | - | - |
| 1788125455 | 66° F | - | - | 0.1 in | 0 mph | - | - |
| 1788124858 | 66° F | - | - | 0.1 in | 0 mph | - | - |
| 1788124261 | 66° F | - | - | 0.1 in | 0 mph | - | - |
| 1788123063 | 65° F | - | - | 0.12 in | 0 mph | - | - |
| 1788120675 | 69° F | - | - | 0.12 in | 0 mph | - | - |
| 1788120078 | 68° F | - | - | 0.12 in | 0 mph | - | - |
| 1788118283 | 68° F | - | - | 0.22 in | 0 mph | - | - |
| 1788117686 | 68° F | - | - | 0.22 in | 14 mph, 359° | - | - |
| 1788117089 | 68° F | - | - | 0.22 in | 13 mph, 264° | - | - |
* Rain latest hour (hover to see other rain measurements)
** Current wind speed in m/s (hover to see current wind gust speed)